Zurück zum Katalog

CZ-6A DEB

AktivPO
NORAD 56258·DEBRIS·🇨🇳 China

Gestartet Nov 11, 2022 von Taiyuan Satellite Launch Center

Loading…

Nächste Überflüge (nächste 24 Stunden)

TLE

AktuellSource: Space-Track

Epoche: Sep 14, 2026, 01:44 UTC

1 56258U 22151ACA 26257.07289964  .00009669  00000-0  18243-2 0  9994
2 56258  98.6509 306.5791 0096346 112.4057 248.7384 14.61722747187300

Verfolge CZ-6A DEB in Echtzeit mit AllMySat

Download on the App Store